INTELSAT NEW DAWN

Last updated on Sat Jul 27 2024 00:02:37 GMT+0000 (Coordinated Universal Time)

1 37392U 11016A 24208.51822934 .00000154 00000+0 00000+0 0 9991 2 37392 0.0145 101.9538 0001601 42.3310 19.7632 1.00272751 48593

Satellite not in orbit

INTELSAT NEW DAWN